Time,TemperatureF,DewpointF,PressureIn,WindDirection,WindDirectionDegrees,WindSpeedMPH,WindSpeedGustMPH,Humidity,HourlyPrecipIn,Conditions,Clouds,dailyrainin,SolarRadiationWatts/m^2,SoftwareType,DateUTC
2013-03-31 00:03:00,53.0,-99.9,-100.00,West,279,3.0,9.0,68,0.01,,,0.01,0.000000,,2013-03-31 04:03:00,
2013-03-31 00:33:00,51.0,50.0,-100.00,NW,317,3.0,6.0,96,0.10,,,0.11,0.000000,,2013-03-31 04:33:00,
2013-03-31 00:43:00,51.0,50.0,-100.00,NW,317,3.0,6.0,96,0.10,,,0.11,0.000000,,2013-03-31 04:43:00,
2013-03-31 00:53:00,51.0,50.0,-100.00,NW,317,3.0,6.0,96,0.10,,,0.11,0.000000,,2013-03-31 04:53:00,
2013-03-31 01:02:00,51.0,50.0,-100.00,NW,317,3.0,6.0,96,0.10,,,0.11,0.000000,,2013-03-31 05:02:00,
2013-03-31 01:32:00,51.0,50.0,-100.00,NW,311,4.0,5.0,97,0.10,,,0.21,0.000000,,2013-03-31 05:32:00,
2013-03-31 01:42:00,51.0,50.0,-100.00,NW,311,4.0,5.0,97,0.10,,,0.21,0.000000,,2013-03-31 05:42:00,
2013-03-31 01:53:00,51.0,50.0,-100.00,NW,311,4.0,5.0,97,0.10,,,0.21,0.000000,,2013-03-31 05:53:00,
2013-03-31 02:02:00,51.0,50.0,-100.00,NW,311,4.0,5.0,97,0.10,,,0.21,0.000000,,2013-03-31 06:02:00,
2013-03-31 02:33:00,51.0,50.0,-100.00,NW,308,2.0,4.0,98,0.10,,,0.31,0.000000,,2013-03-31 06:33:00,
2013-03-31 02:42:00,51.0,50.0,-100.00,NW,308,2.0,4.0,98,0.10,,,0.31,0.000000,,2013-03-31 06:42:00,
2013-03-31 02:53:00,51.0,50.0,-100.00,NW,308,2.0,4.0,98,0.10,,,0.31,0.000000,,2013-03-31 06:53:00,
2013-03-31 03:02:00,51.0,50.0,-100.00,NW,308,2.0,4.0,98,0.10,,,0.31,0.000000,,2013-03-31 07:02:00,
2013-03-31 04:32:00,50.0,50.0,-100.00,SSE,153,1.0,6.0,99,-99.99,,,0.58,0.000000,,2013-03-31 08:32:00,
2013-03-31 04:42:00,50.0,50.0,-100.00,SSE,153,1.0,6.0,99,-99.99,,,0.58,0.000000,,2013-03-31 08:42:00,
2013-03-31 04:52:00,50.0,50.0,-100.00,SSE,153,1.0,6.0,99,-99.99,,,0.58,0.000000,,2013-03-31 08:52:00,
2013-03-31 05:02:00,50.0,50.0,-100.00,SSE,153,1.0,6.0,99,-99.99,,,0.58,0.000000,,2013-03-31 09:02:00,
2013-03-31 05:33:00,51.0,51.0,-100.00,SW,220,2.0,4.0,99,0.18,,,-99.99,0.000000,,2013-03-31 09:33:00,
2013-03-31 05:43:00,51.0,51.0,-100.00,SW,220,2.0,4.0,99,0.18,,,-99.99,0.000000,,2013-03-31 09:43:00,
2013-03-31 05:53:00,51.0,51.0,-100.00,SW,220,2.0,4.0,99,0.18,,,-99.99,0.000000,,2013-03-31 09:53:00,
2013-03-31 06:03:00,51.0,51.0,-100.00,SW,220,2.0,4.0,99,0.18,,,-99.99,0.000000,,2013-03-31 10:03:00,
2013-03-31 06:33:00,52.0,52.0,-100.00,SW,235,3.0,6.0,99,0.01,,,0.77,0.000000,,2013-03-31 10:33:00,
2013-03-31 06:42:00,52.0,52.0,-100.00,SW,235,3.0,6.0,99,0.01,,,0.77,0.000000,,2013-03-31 10:42:00,
2013-03-31 06:53:00,52.0,52.0,-100.00,SW,235,3.0,6.0,99,0.01,,,0.77,0.000000,,2013-03-31 10:53:00,
2013-03-31 07:03:00,52.0,52.0,-100.00,SW,235,3.0,6.0,99,0.01,,,0.77,0.000000,,2013-03-31 11:03:00,
2013-03-31 07:33:00,52.0,52.0,-100.00,SW,223,2.0,5.0,100,0.00,,,0.77,0.000000,,2013-03-31 11:33:00,
2013-03-31 07:43:00,52.0,52.0,-100.00,SW,223,2.0,5.0,100,0.00,,,0.77,0.000000,,2013-03-31 11:43:00,
2013-03-31 07:53:00,52.0,52.0,-100.00,SW,223,2.0,5.0,100,0.00,,,0.77,0.000000,,2013-03-31 11:53:00,
2013-03-31 08:03:00,52.0,52.0,-100.00,SW,223,2.0,5.0,100,0.00,,,0.77,0.000000,,2013-03-31 12:03:00,
2013-03-31 12:34:00,65.0,54.0,-100.00,WSW,238,3.0,9.0,67,-99.99,,,0.77,732.000000,,2013-03-31 16:34:00,
2013-03-31 12:43:00,65.0,54.0,-100.00,WSW,238,3.0,9.0,67,-99.99,,,0.77,732.000000,,2013-03-31 16:43:00,
2013-03-31 12:54:00,65.0,54.0,-100.00,WSW,238,3.0,9.0,67,-99.99,,,0.77,732.000000,,2013-03-31 16:54:00,
2013-03-31 13:03:00,65.0,54.0,-100.00,WSW,238,3.0,9.0,67,-99.99,,,0.77,732.000000,,2013-03-31 17:03:00,
2013-03-31 13:33:00,64.0,53.0,-100.00,WSW,245,4.0,9.0,68,0.00,,,0.77,361.000000,,2013-03-31 17:33:00,
2013-03-31 13:43:00,64.0,53.0,-100.00,WSW,245,4.0,9.0,68,0.00,,,0.77,361.000000,,2013-03-31 17:43:00,
2013-03-31 13:52:00,64.0,53.0,-100.00,WSW,245,4.0,9.0,68,0.00,,,0.77,361.000000,,2013-03-31 17:52:00,
2013-03-31 14:03:00,64.0,53.0,-100.00,WSW,245,4.0,9.0,68,0.00,,,0.77,361.000000,,2013-03-31 18:03:00,
2013-03-31 14:33:00,66.0,54.0,-100.00,WSW,239,4.0,8.0,65,0.00,,,0.77,276.000000,,2013-03-31 18:33:00,
2013-03-31 14:43:00,66.0,54.0,-100.00,WSW,239,4.0,8.0,65,0.00,,,0.77,276.000000,,2013-03-31 18:43:00,
2013-03-31 14:53:00,66.0,54.0,-100.00,WSW,239,4.0,8.0,65,0.00,,,0.77,276.000000,,2013-03-31 18:53:00,
2013-03-31 15:03:00,66.0,54.0,-100.00,WSW,239,4.0,8.0,65,0.00,,,0.77,276.000000,,2013-03-31 19:03:00,
2013-03-31 15:33:00,66.0,49.0,-100.00,SW,225,5.0,10.0,54,0.00,,,-99.99,458.000000,,2013-03-31 19:33:00,
2013-03-31 15:43:00,66.0,49.0,-100.00,SW,225,5.0,10.0,54,0.00,,,-99.99,458.000000,,2013-03-31 19:43:00,
2013-03-31 15:54:00,66.0,49.0,-100.00,SW,225,5.0,10.0,54,0.00,,,-99.99,458.000000,,2013-03-31 19:54:00,
2013-03-31 16:03:00,66.0,49.0,-100.00,SW,225,5.0,10.0,54,0.00,,,-99.99,458.000000,,2013-03-31 20:03:00,
2013-03-31 16:34:00,58.0,46.0,-100.00,WSW,255,4.0,11.0,64,0.04,,,0.81,127.000000,,2013-03-31 20:34:00,
2013-03-31 16:43:00,58.0,46.0,-100.00,WSW,255,4.0,11.0,64,0.04,,,0.81,127.000000,,2013-03-31 20:43:00,
2013-03-31 16:53:00,58.0,46.0,-100.00,WSW,255,4.0,11.0,64,0.04,,,0.81,127.000000,,2013-03-31 20:53:00,
2013-03-31 17:03:00,58.0,46.0,-100.00,WSW,255,4.0,11.0,64,0.04,,,0.81,127.000000,,2013-03-31 21:03:00,
2013-03-31 17:34:00,59.0,56.0,-100.00,WSW,248,3.0,8.0,91,0.02,,,0.83,245.000000,,2013-03-31 21:34:00,
2013-03-31 17:44:00,59.0,56.0,-100.00,WSW,248,3.0,8.0,91,0.02,,,0.83,245.000000,,2013-03-31 21:44:00,
2013-03-31 17:54:00,59.0,56.0,-100.00,WSW,248,3.0,8.0,91,0.02,,,0.83,245.000000,,2013-03-31 21:54:00,
2013-03-31 18:04:00,59.0,56.0,-100.00,WSW,248,3.0,8.0,91,0.02,,,0.83,245.000000,,2013-03-31 22:04:00,
2013-03-31 18:33:00,60.0,56.0,-100.00,WSW,239,3.0,6.0,86,0.00,,,0.83,179.000000,,2013-03-31 22:33:00,
2013-03-31 18:43:00,60.0,56.0,-100.00,WSW,239,3.0,6.0,86,0.00,,,0.83,179.000000,,2013-03-31 22:43:00,
2013-03-31 18:53:00,60.0,56.0,-100.00,WSW,239,3.0,6.0,86,0.00,,,0.83,179.000000,,2013-03-31 22:53:00,
2013-03-31 19:03:00,60.0,56.0,-100.00,WSW,239,3.0,6.0,86,0.00,,,0.83,179.000000,,2013-03-31 23:03:00,
2013-03-31 19:33:00,59.0,54.0,-100.00,WSW,241,2.0,6.0,84,0.00,,,0.83,110.000000,,2013-03-31 23:33:00,
2013-03-31 19:43:00,59.0,54.0,-100.00,WSW,241,2.0,6.0,84,0.00,,,0.83,110.000000,,2013-03-31 23:43:00,
2013-03-31 19:54:00,59.0,54.0,-100.00,WSW,241,2.0,6.0,84,0.00,,,0.83,110.000000,,2013-03-31 23:54:00,
2013-03-31 20:02:00,59.0,54.0,-100.00,WSW,241,2.0,6.0,84,0.00,,,0.83,110.000000,,2013-04-01 00:02:00,
2013-03-31 20:33:00,58.0,54.0,-100.00,WSW,257,3.0,5.0,86,0.00,,,0.83,14.000000,,2013-04-01 00:33:00,
2013-03-31 20:43:00,58.0,54.0,-100.00,WSW,257,3.0,5.0,86,0.00,,,0.83,14.000000,,2013-04-01 00:43:00,
2013-03-31 20:53:00,58.0,54.0,-100.00,WSW,257,3.0,5.0,86,0.00,,,0.83,14.000000,,2013-04-01 00:53:00,
2013-03-31 21:03:00,58.0,54.0,-100.00,WSW,257,3.0,5.0,86,0.00,,,0.83,14.000000,,2013-04-01 01:03:00,
2013-03-31 21:33:00,57.0,53.0,-100.00,West,265,3.0,5.0,86,0.00,,,0.83,0.000000,,2013-04-01 01:33:00,
2013-03-31 21:43:00,57.0,53.0,-100.00,West,265,3.0,5.0,86,0.00,,,0.83,0.000000,,2013-04-01 01:43:00,
2013-03-31 21:53:00,57.0,53.0,-100.00,West,265,3.0,5.0,86,0.00,,,0.83,0.000000,,2013-04-01 01:53:00,
2013-03-31 22:03:00,57.0,53.0,-100.00,West,265,3.0,5.0,86,0.00,,,0.83,0.000000,,2013-04-01 02:03:00,
2013-03-31 22:33:00,57.0,53.0,-100.00,West,262,3.0,5.0,87,0.00,,,0.83,0.000000,,2013-04-01 02:33:00,
2013-03-31 22:43:00,57.0,53.0,-100.00,West,262,3.0,5.0,87,0.00,,,0.83,0.000000,,2013-04-01 02:43:00,
2013-03-31 22:53:00,57.0,53.0,-100.00,West,262,3.0,5.0,87,0.00,,,0.83,0.000000,,2013-04-01 02:53:00,
2013-03-31 23:03:00,57.0,53.0,-100.00,West,262,3.0,5.0,87,0.00,,,0.83,0.000000,,2013-04-01 03:03:00,
2013-03-31 23:35:00,55.0,53.0,-100.00,West,260,4.0,5.0,94,0.01,,,0.83,0.000000,,2013-04-01 03:35:00,
2013-03-31 23:43:00,55.0,53.0,-100.00,West,260,4.0,5.0,94,0.01,,,0.83,0.000000,,2013-04-01 03:43:00,
2013-03-31 23:53:00,55.0,53.0,-100.00,West,260,4.0,5.0,94,0.01,,,0.83,0.000000,,2013-04-01 03:53:00,